PAL1863 RPLL-RPVM

Flight info

Callsign PAL1863
Flight time 1h 0m
Altitude 37000
Route RDVXIPATA/06 IPATA W25 BATAY BATAY3P
Aircraft A333/H-SDE3GHIJ2J3J5M1RVWXY/LB2D1

Departure

Time 2026-05-08 06:58
Airport Ninoy Aquino International Airport (RPLL)

Arrival

Time 2026-05-08 07:59
Airport Mactan Cebu International Airport (RPVM)
Time Latitude Longitude Altitude Speed Heading
2026-05-08 06:31 14.51072 121.01366 62 ft 0 kts 220°
2026-05-08 06:32 14.51072 121.01367 62 ft 0 kts 221°
2026-05-08 06:34 14.51073 121.01367 62 ft 0 kts 220°
2026-05-08 06:45 14.51083 121.01376 72 ft 2 kts 220°
2026-05-08 06:45 14.51095 121.01386 62 ft 2 kts 220°
2026-05-08 06:45 14.51107 121.01397 62 ft 2 kts 220°
2026-05-08 06:45 14.51119 121.01407 62 ft 2 kts 208°
2026-05-08 06:46 14.51134 121.01413 62 ft 2 kts 149°
2026-05-08 06:46 14.51146 121.01402 62 ft 2 kts 133°
2026-05-08 06:46 14.51149 121.01399 62 ft 0 kts 133°
2026-05-08 06:47 14.51149 121.01398 62 ft 0 kts 133°
2026-05-08 06:48 14.51150 121.01398 62 ft 0 kts 133°
2026-05-08 06:49 14.51147 121.01401 62 ft 2 kts 133°
2026-05-08 06:50 14.51134 121.01415 62 ft 4 kts 133°
2026-05-08 06:50 14.51113 121.01438 62 ft 5 kts 134°
2026-05-08 06:50 14.51082 121.01470 63 ft 7 kts 135°
2026-05-08 06:50 14.51041 121.01512 71 ft 9 kts 135°
2026-05-08 06:51 14.50994 121.01561 64 ft 10 kts 135°
2026-05-08 06:51 14.50940 121.01618 62 ft 12 kts 134°
2026-05-08 06:51 14.50882 121.01655 66 ft 6 kts 180°
2026-05-08 06:51 14.50852 121.01640 62 ft 5 kts 212°
2026-05-08 06:52 14.50837 121.01620 66 ft 4 kts 239°
2026-05-08 06:52 14.50820 121.01592 64 ft 6 kts 239°
2026-05-08 06:52 14.50797 121.01550 64 ft 8 kts 240°
2026-05-08 06:52 14.50766 121.01494 62 ft 10 kts 240°
2026-05-08 06:53 14.50727 121.01425 67 ft 12 kts 240°
2026-05-08 06:53 14.50683 121.01344 73 ft 14 kts 240°
2026-05-08 06:53 14.50632 121.01253 63 ft 15 kts 240°
2026-05-08 06:53 14.50575 121.01151 66 ft 17 kts 240°
2026-05-08 06:54 14.50512 121.01038 62 ft 19 kts 240°
2026-05-08 06:54 14.50443 121.00915 66 ft 21 kts 240°
2026-05-08 06:54 14.50368 121.00778 61 ft 23 kts 240°
2026-05-08 06:54 14.50286 121.00632 63 ft 24 kts 240°
2026-05-08 06:55 14.50201 121.00477 64 ft 25 kts 239°
2026-05-08 06:55 14.50111 121.00318 66 ft 26 kts 240°
2026-05-08 06:55 14.50020 121.00154 65 ft 26 kts 240°
2026-05-08 06:55 14.49934 121.00001 63 ft 13 kts 237°
2026-05-08 06:56 14.49872 120.99972 63 ft 8 kts 171°
2026-05-08 06:56 14.49829 120.99997 66 ft 7 kts 139°
2026-05-08 06:56 14.49811 121.00042 65 ft 7 kts 91°
2026-05-08 06:56 14.49824 121.00075 67 ft 5 kts 63°
2026-05-08 06:57 14.49845 121.00114 64 ft 7 kts 61°
2026-05-08 06:57 14.49871 121.00162 64 ft 11 kts 60°
2026-05-08 06:57 14.49999 121.00394 63 ft 70 kts 60°
2026-05-08 06:57 14.50352 121.01025 66 ft 131 kts 61°
2026-05-08 06:58 14.50899 121.01996 161 ft 177 kts 65°
2026-05-08 06:58 14.51529 121.03184 681 ft 200 kts 66°
2026-05-08 06:58 14.52240 121.04473 1471 ft 211 kts 62°
2026-05-08 06:58 14.53032 121.05843 1885 ft 235 kts 60°
2026-05-08 06:59 14.53906 121.07345 2388 ft 251 kts 61°
2026-05-08 06:59 14.54793 121.08920 3121 ft 256 kts 65°
2026-05-08 06:59 14.55231 121.10071 3669 ft 256 kts 75°
2026-05-08 06:59 14.55308 121.12497 4712 ft 262 kts 103°
2026-05-08 07:00 14.54457 121.14165 5537 ft 268 kts 127°
2026-05-08 07:00 14.53165 121.15577 6397 ft 272 kts 133°
2026-05-08 07:00 14.52254 121.16478 6914 ft 276 kts 134°
2026-05-08 07:00 14.50826 121.17870 7710 ft 281 kts 134°
2026-05-08 07:01 14.49392 121.19273 8523 ft 286 kts 134°
2026-05-08 07:01 14.47945 121.20696 9374 ft 290 kts 134°
2026-05-08 07:01 14.46478 121.22143 10170 ft 295 kts 134°
2026-05-08 07:01 14.44953 121.23654 10577 ft 314 kts 134°
2026-05-08 07:02 14.43324 121.25269 10916 ft 333 kts 133°
2026-05-08 07:02 14.41633 121.26944 11522 ft 341 kts 133°
2026-05-08 07:02 14.39907 121.28656 12186 ft 347 kts 133°
2026-05-08 07:02 14.38154 121.30394 12901 ft 352 kts 133°
2026-05-08 07:03 14.36402 121.32131 13608 ft 357 kts 134°
2026-05-08 07:03 14.34578 121.33936 14247 ft 360 kts 134°
2026-05-08 07:03 14.32762 121.35732 14944 ft 363 kts 133°
2026-05-08 07:03 14.30940 121.37535 15673 ft 364 kts 134°
2026-05-08 07:04 14.29104 121.39352 16292 ft 368 kts 134°
2026-05-08 07:04 14.27251 121.41185 16939 ft 372 kts 135°
2026-05-08 07:04 14.25376 121.43041 17578 ft 375 kts 134°
2026-05-08 07:04 14.23495 121.44902 18253 ft 376 kts 134°
2026-05-08 07:05 14.21627 121.46750 18774 ft 380 kts 134°
2026-05-08 07:05 14.19713 121.48643 19274 ft 384 kts 135°
2026-05-08 07:05 14.17775 121.50560 19733 ft 388 kts 134°
2026-05-08 07:05 14.15814 121.52498 20131 ft 394 kts 135°
2026-05-08 07:06 14.13822 121.54466 20602 ft 399 kts 135°
2026-05-08 07:06 14.11771 121.56496 20391 ft 421 kts 134°
2026-05-08 07:06 14.09624 121.58627 20482 ft 433 kts 135°
2026-05-08 07:06 14.07458 121.60764 21126 ft 428 kts 135°
2026-05-08 07:07 14.05311 121.62880 21603 ft 432 kts 135°
2026-05-08 07:07 14.03115 121.65046 21699 ft 442 kts 134°
2026-05-08 07:07 14.00879 121.67269 21762 ft 447 kts 135°
2026-05-08 07:07 13.98706 121.69440 21929 ft 424 kts 134°
2026-05-08 07:08 13.96650 121.71505 22071 ft 404 kts 134°
2026-05-08 07:08 13.94677 121.73488 22508 ft 391 kts 135°
2026-05-08 07:08 13.92726 121.75438 23032 ft 393 kts 134°
2026-05-08 07:08 13.90727 121.77398 23377 ft 402 kts 136°
2026-05-08 07:09 13.88653 121.79390 23565 ft 414 kts 136°
2026-05-08 07:09 13.86486 121.81379 23860 ft 420 kts 139°
2026-05-08 07:09 13.84183 121.83251 24272 ft 424 kts 141°
2026-05-08 07:09 13.81813 121.85066 24686 ft 426 kts 143°
2026-05-08 07:10 13.79400 121.86864 25081 ft 430 kts 143°
2026-05-08 07:10 13.76970 121.88660 25535 ft 431 kts 143°
2026-05-08 07:10 13.74528 121.90470 25933 ft 434 kts 143°
2026-05-08 07:10 13.72079 121.92294 26354 ft 435 kts 143°
2026-05-08 07:11 13.69625 121.94132 26761 ft 438 kts 143°
2026-05-08 07:11 13.67158 121.95987 27125 ft 441 kts 143°
2026-05-08 07:11 13.64677 121.97856 27568 ft 443 kts 143°
2026-05-08 07:11 13.62189 121.99732 27963 ft 445 kts 143°
2026-05-08 07:12 13.59683 122.01621 28353 ft 448 kts 144°
2026-05-08 07:12 13.57166 122.03518 28748 ft 450 kts 144°
2026-05-08 07:12 13.54637 122.05423 29155 ft 452 kts 144°
2026-05-08 07:12 13.52099 122.07334 29576 ft 453 kts 144°
2026-05-08 07:13 13.49544 122.09257 29901 ft 457 kts 144°
2026-05-08 07:13 13.46974 122.11190 30200 ft 459 kts 144°
2026-05-08 07:13 13.44386 122.13137 30462 ft 463 kts 144°
2026-05-08 07:13 13.41781 122.15094 30727 ft 466 kts 144°
2026-05-08 07:14 13.39158 122.17066 31015 ft 469 kts 144°
2026-05-08 07:14 13.36519 122.19048 31274 ft 471 kts 145°
2026-05-08 07:14 13.33867 122.21041 31547 ft 474 kts 145°
2026-05-08 07:14 13.31197 122.23047 31819 ft 477 kts 145°
2026-05-08 07:15 13.28513 122.25062 32090 ft 479 kts 145°
2026-05-08 07:15 13.25849 122.27061 32243 ft 485 kts 145°
2026-05-08 07:15 13.23060 122.29155 32102 ft 496 kts 145°
2026-05-08 07:15 13.20246 122.31274 31982 ft 506 kts 145°
2026-05-08 07:16 13.17440 122.33385 32351 ft 504 kts 145°
2026-05-08 07:16 13.14650 122.35478 33238 ft 490 kts 146°
2026-05-08 07:16 13.11918 122.37524 33937 ft 483 kts 146°
2026-05-08 07:16 13.09208 122.39553 34345 ft 481 kts 146°
2026-05-08 07:17 13.06508 122.41573 34713 ft 480 kts 146°
2026-05-08 07:17 13.03815 122.43587 35079 ft 478 kts 146°
2026-05-08 07:17 13.01128 122.45598 35437 ft 478 kts 146°
2026-05-08 07:17 12.98447 122.47604 35771 ft 477 kts 146°
2026-05-08 07:18 12.95768 122.49607 36091 ft 476 kts 146°
2026-05-08 07:18 12.93095 122.51607 36423 ft 476 kts 146°
2026-05-08 07:18 12.87657 122.55641 36235 ft 494 kts 147°
2026-05-08 07:19 12.82027 122.59806 36627 ft 495 kts 146°
2026-05-08 07:19 12.79290 122.61873 36815 ft 482 kts 146°
2026-05-08 07:19 12.76630 122.63886 36836 ft 470 kts 146°
2026-05-08 07:20 12.71396 122.67823 36828 ft 466 kts 146°
2026-05-08 07:20 12.66154 122.71737 36829 ft 467 kts 146°
2026-05-08 07:21 12.60902 122.75651 36829 ft 468 kts 147°
2026-05-08 07:21 12.55636 122.79574 36829 ft 469 kts 147°
2026-05-08 07:22 12.50366 122.83500 36826 ft 469 kts 147°
2026-05-08 07:22 12.45094 122.87426 36824 ft 468 kts 147°
2026-05-08 07:23 12.39827 122.91346 36823 ft 468 kts 147°
2026-05-08 07:23 12.34562 122.95264 36821 ft 468 kts 147°
2026-05-08 07:24 12.29296 122.99179 36816 ft 468 kts 147°
2026-05-08 07:24 12.24029 123.03093 36818 ft 469 kts 147°
2026-05-08 07:25 12.18753 123.07011 36818 ft 469 kts 147°
2026-05-08 07:26 12.10840 123.12884 36815 ft 469 kts 147°
2026-05-08 07:26 12.05565 123.16797 36812 ft 469 kts 147°
2026-05-08 07:27 12.00282 123.20714 36815 ft 470 kts 147°
2026-05-08 07:27 11.94988 123.24637 36816 ft 470 kts 146°
2026-05-08 07:28 11.89734 123.28529 36602 ft 468 kts 146°
2026-05-08 07:28 11.87108 123.30475 36208 ft 465 kts 146°
2026-05-08 07:28 11.84478 123.32422 35521 ft 469 kts 146°
2026-05-08 07:28 11.81825 123.34384 34853 ft 473 kts 146°
2026-05-08 07:29 11.79149 123.36363 34166 ft 477 kts 146°
2026-05-08 07:29 11.76461 123.38352 33401 ft 475 kts 145°
2026-05-08 07:29 11.73790 123.40328 32662 ft 475 kts 145°
2026-05-08 07:29 11.71109 123.42311 31912 ft 477 kts 145°
2026-05-08 07:30 11.68414 123.44303 31166 ft 479 kts 144°
2026-05-08 07:30 11.65730 123.46287 30680 ft 474 kts 144°
2026-05-08 07:30 11.63070 123.48253 30182 ft 470 kts 144°
2026-05-08 07:30 11.60435 123.50200 29627 ft 466 kts 144°
2026-05-08 07:31 11.57824 123.52129 29078 ft 461 kts 144°
2026-05-08 07:31 11.55240 123.54036 28573 ft 456 kts 144°
2026-05-08 07:31 11.52688 123.55920 28056 ft 451 kts 144°
2026-05-08 07:31 11.50160 123.57786 27542 ft 446 kts 144°
2026-05-08 07:32 11.47656 123.59634 27029 ft 442 kts 144°
2026-05-08 07:32 11.45179 123.61461 26544 ft 438 kts 143°
2026-05-08 07:32 11.42725 123.63271 26046 ft 434 kts 143°
2026-05-08 07:32 11.40289 123.65068 25536 ft 431 kts 143°
2026-05-08 07:33 11.37869 123.66851 25031 ft 428 kts 143°
2026-05-08 07:33 11.35467 123.68622 24554 ft 424 kts 143°
2026-05-08 07:33 11.33082 123.70380 24062 ft 422 kts 143°
2026-05-08 07:33 11.30714 123.72124 23568 ft 419 kts 143°
2026-05-08 07:34 11.28355 123.73861 23034 ft 417 kts 143°
2026-05-08 07:34 11.26019 123.75581 22537 ft 412 kts 143°
2026-05-08 07:34 11.23709 123.77281 22066 ft 407 kts 142°
2026-05-08 07:35 11.19105 123.80671 21108 ft 399 kts 142°
2026-05-08 07:35 11.16845 123.82281 20643 ft 396 kts 147°
2026-05-08 07:35 11.14347 123.83429 20131 ft 393 kts 163°
2026-05-08 07:35 11.11649 123.83715 19664 ft 393 kts 182°
2026-05-08 07:36 11.08960 123.83226 19195 ft 394 kts 192°
2026-05-08 07:36 11.06320 123.82497 18733 ft 392 kts 193°
2026-05-08 07:36 11.03699 123.81740 18266 ft 391 kts 193°
2026-05-08 07:36 11.01091 123.80991 17783 ft 389 kts 193°
2026-05-08 07:37 10.98494 123.80253 17318 ft 385 kts 193°
2026-05-08 07:37 10.95925 123.79529 16770 ft 383 kts 193°
2026-05-08 07:37 10.93376 123.78813 16150 ft 374 kts 193°
2026-05-08 07:37 10.90919 123.78123 15587 ft 359 kts 193°
2026-05-08 07:38 10.88562 123.77463 15195 ft 346 kts 193°
2026-05-08 07:38 10.86268 123.76822 14960 ft 338 kts 193°
2026-05-08 07:38 10.84033 123.76198 14762 ft 329 kts 193°
2026-05-08 07:38 10.81861 123.75592 14622 ft 318 kts 193°
2026-05-08 07:39 10.79769 123.74982 14488 ft 308 kts 197°
2026-05-08 07:39 10.77913 123.73964 14385 ft 301 kts 219°
2026-05-08 07:39 10.76710 123.72280 14276 ft 293 kts 250°
2026-05-08 07:39 10.76467 123.70953 14201 ft 286 kts 272°
2026-05-08 07:40 10.77001 123.69082 14096 ft 272 kts 307°
2026-05-08 07:40 10.78401 123.67869 13987 ft 257 kts 340°
2026-05-08 07:40 10.80093 123.67529 13877 ft 251 kts
2026-05-08 07:40 10.81799 123.67823 13765 ft 249 kts 18°
2026-05-08 07:41 10.83465 123.68308 13656 ft 250 kts 18°
2026-05-08 07:41 10.85138 123.68792 13530 ft 250 kts 18°
2026-05-08 07:41 10.86840 123.69272 13409 ft 251 kts 17°
2026-05-08 07:41 10.88494 123.69754 13262 ft 250 kts 22°
2026-05-08 07:42 10.89972 123.70631 13144 ft 245 kts 45°
2026-05-08 07:42 10.90883 123.72058 13034 ft 242 kts 73°
2026-05-08 07:42 10.91024 123.73744 12895 ft 241 kts 99°
2026-05-08 07:42 10.90401 123.75324 12781 ft 244 kts 124°
2026-05-08 07:43 10.89113 123.76478 12651 ft 248 kts 151°
2026-05-08 07:43 10.87439 123.76894 12524 ft 253 kts 179°
2026-05-08 07:43 10.85692 123.76625 12413 ft 255 kts 191°
2026-05-08 07:43 10.83989 123.76177 12296 ft 260 kts 193°
2026-05-08 07:44 10.82083 123.75659 12160 ft 298 kts 192°
2026-05-08 07:44 10.80013 123.75105 11962 ft 313 kts 193°
2026-05-08 07:44 10.77839 123.74501 11708 ft 344 kts 193°
2026-05-08 07:44 10.75448 123.73830 11446 ft 356 kts 193°
2026-05-08 07:45 10.73059 123.73158 11197 ft 355 kts 194°
2026-05-08 07:45 10.70719 123.72501 10972 ft 352 kts 193°
2026-05-08 07:45 10.68359 123.71840 10733 ft 351 kts 194°
2026-05-08 07:45 10.65978 123.71173 10513 ft 350 kts 193°
2026-05-08 07:46 10.63666 123.70527 10283 ft 349 kts 193°
2026-05-08 07:46 10.61332 123.69875 10069 ft 345 kts 193°
2026-05-08 07:46 10.59074 123.69244 9957 ft 329 kts 193°
2026-05-08 07:46 10.56920 123.68642 9856 ft 314 kts 193°
2026-05-08 07:47 10.54852 123.68065 9747 ft 303 kts 193°
2026-05-08 07:47 10.52830 123.67503 9643 ft 301 kts 193°
2026-05-08 07:47 10.50812 123.66942 9575 ft 301 kts 193°
2026-05-08 07:47 10.48815 123.66386 9388 ft 295 kts 193°
2026-05-08 07:48 10.46842 123.65838 9048 ft 294 kts 193°
2026-05-08 07:48 10.44871 123.65290 8694 ft 293 kts 193°
2026-05-08 07:48 10.42907 123.64743 8341 ft 292 kts 193°
2026-05-08 07:48 10.40947 123.64198 7996 ft 291 kts 193°
2026-05-08 07:49 10.39000 123.63657 7649 ft 290 kts 193°
2026-05-08 07:49 10.37054 123.63135 7304 ft 288 kts 189°
2026-05-08 07:49 10.35082 123.63040 6944 ft 282 kts 167°
2026-05-08 07:49 10.33301 123.63770 6601 ft 275 kts 142°
2026-05-08 07:50 10.31867 123.65029 6262 ft 271 kts 133°
2026-05-08 07:50 10.30548 123.66381 5912 ft 268 kts 131°
2026-05-08 07:50 10.29250 123.67731 5591 ft 267 kts 131°
2026-05-08 07:50 10.27954 123.69072 5255 ft 265 kts 132°
2026-05-08 07:51 10.26664 123.70401 4947 ft 264 kts 132°
2026-05-08 07:51 10.25372 123.71723 4620 ft 263 kts 133°
2026-05-08 07:51 10.24080 123.73040 4292 ft 263 kts 133°
2026-05-08 07:51 10.22790 123.74356 4024 ft 264 kts 131°
2026-05-08 07:52 10.21476 123.75697 3620 ft 272 kts 132°
2026-05-08 07:52 10.20129 123.77066 3159 ft 274 kts 133°
2026-05-08 07:52 10.18803 123.78409 3010 ft 265 kts 133°
2026-05-08 07:52 10.17554 123.79735 2969 ft 252 kts 126°
2026-05-08 07:53 10.16769 123.81247 2851 ft 236 kts 102°
2026-05-08 07:53 10.16742 123.82850 2740 ft 223 kts 76°
2026-05-08 07:53 10.17387 123.84220 2676 ft 210 kts 53°
2026-05-08 07:53 10.18338 123.85285 2605 ft 197 kts 46°
2026-05-08 07:54 10.19275 123.86208 2514 ft 177 kts 45°
2026-05-08 07:54 10.20110 123.87019 2501 ft 155 kts 46°
2026-05-08 07:54 10.20837 123.87732 2499 ft 134 kts 45°
2026-05-08 07:54 10.21475 123.88364 2474 ft 125 kts 46°
2026-05-08 07:55 10.22102 123.88989 2371 ft 128 kts 47°
2026-05-08 07:55 10.22737 123.89625 2167 ft 129 kts 46°
2026-05-08 07:55 10.23376 123.90265 1952 ft 128 kts 46°
2026-05-08 07:55 10.24006 123.90895 1765 ft 128 kts 47°
2026-05-08 07:56 10.24643 123.91535 1655 ft 130 kts 46°
2026-05-08 07:56 10.25282 123.92176 1456 ft 129 kts 46°
2026-05-08 07:56 10.25911 123.92805 1283 ft 129 kts 47°
2026-05-08 07:56 10.26554 123.93451 1122 ft 127 kts 47°
2026-05-08 07:57 10.27172 123.94071 959 ft 125 kts 47°
2026-05-08 07:57 10.27782 123.94687 752 ft 124 kts 44°
2026-05-08 07:57 10.28398 123.95305 584 ft 125 kts 44°
2026-05-08 07:57 10.29018 123.95927 414 ft 126 kts 45°
2026-05-08 07:58 10.29644 123.96560 242 ft 128 kts 44°
2026-05-08 07:58 10.30273 123.97194 63 ft 126 kts 43°
2026-05-08 07:58 10.30847 123.97769 41 ft 96 kts 45°
2026-05-08 07:58 10.31252 123.98172 42 ft 54 kts 44°
2026-05-08 07:59 10.31381 123.98283 44 ft 14 kts 14°
2026-05-08 07:59 10.31464 123.98249 43 ft 14 kts 322°
2026-05-08 07:59 10.31537 123.98179 43 ft 15 kts 313°
2026-05-08 07:59 10.30345 123.97266 54 ft 125 kts 43°
2026-05-08 08:00 10.30889 123.97812 40 ft 90 kts 45°
2026-05-08 08:00 10.31062 123.97986 40 ft 1 kts 44°
2026-05-08 08:00 10.29946 123.96867 160 ft 115 kts 43°
2026-05-08 08:01 10.30094 123.97016 113 ft 127 kts 43°
2026-05-08 08:01 10.30706 123.97623 42 ft 111 kts 46°
2026-05-08 08:01 10.29963 123.96884 155 ft 115 kts 43°
2026-05-08 08:01 10.30367 123.97288 54 ft 125 kts 43°
2026-05-08 08:02 10.30918 123.97841 40 ft 92 kts 44°
2026-05-08 08:02 10.30463 123.97383 48 ft 123 kts 43°
2026-05-08 08:02 10.30602 123.97522 41 ft 100 kts 44°
2026-05-08 08:02 10.30387 123.97308 52 ft 125 kts 43°
2026-05-08 08:03 10.30932 123.97855 40 ft 91 kts 44°
2026-05-08 08:03 10.31292 123.98212 43 ft 34 kts 44°
2026-05-08 08:03 10.31398 123.98284 44 ft 13 kts 358°
2026-05-08 08:03 10.31478 123.98237 43 ft 14 kts 319°
2026-05-08 08:04 10.31540 123.98175 43 ft 1 kts 308°
2026-05-08 08:04 10.31552 123.98155 43 ft 5 kts 297°